Proserpine Hamilton Isla, Australia

6:30 AM AEST on December 03, 2016 (GMT +1000)
Proserpine Hamilton Isla

Weather History for 94368 - April, 2013

Change the Weather History Date:

Monday, April 1, 2013

  Actual Average Record
Temperature  
Mean Temperature 78 °F -  
Max Temperature 82 °F - - ()
Min Temperature 74 °F - - ()
Cooling Degree Days 13    
Growing Degree Days 28 (Base 50)    
Moisture  
Dew Point 73 °F    
Average Humidity 83    
Maximum Humidity 94    
Minimum Humidity 66    
Precipitation  
Precipitation 0.00 in - - ()
Sea Level Pressure  
Sea Level Pressure 29.93 in    
Wind  
Wind Speed 4 mph ()    
Max Wind Speed 13 mph    
Max Gust Speed -    
T = Trace of Precipitation, MM = Missing Value Source: Averaged Metar Reports

Daily Weather History Graph

Daily Weather History Graph

Search for Another Location

Airport or City:

Trip Planner

Search our weather history database for the weather conditions in past years. The results will help you decide how hot, cold, wet, or windy it might be!

Date:

Astronomy

Apr. 01, 2013 Rise Set
Actual Time 6:11 AM AEST 6:04 PM AEST
Civil Twilight 5:49 AM AEST 6:26 PM AEST
Nautical Twilight 5:23 AM AEST 6:52 PM AEST
Astronomical Twilight 4:57 AM AEST 7:17 PM AEST
Moon 10:08 PM AEST (4/1) 10:43 AM AEST (4/1)
Length of Visible Light 12h 37m
Length of Day
11h 53m
Waning Gibbous, 73% of the Moon is Illuminated
Apr 1
Waning Gibbous
Apr 3
Last Quarter
Apr 10
New
Apr 18
First Quarter
Apr 26
Full

Hourly Weather History & Observations

Time (AEST) Temp. Heat Index Dew Point Humidity Pressure Visibility Wind Dir Wind Speed Gust Speed Precip Events Conditions
12:00 AM 76 °F - 73 °F 87% 29.95 in - NNW 3.5 mph - -  
12:00 AM 75.2 °F - 73.4 °F 94% 29.95 in - NNW 3.5 mph - N/A   Unknown
12:30 AM 75.2 °F - 71.6 °F 89% 29.95 in - Calm Calm - N/A   Unknown
1:00 AM 75.2 °F - 71.6 °F 89% 29.92 in - NNW 1.2 mph - N/A   Unknown
1:30 AM 75.2 °F - 73.4 °F 94% 29.92 in - NW 4.6 mph - N/A   Unknown
2:00 AM 75.2 °F - 73.4 °F 94% 29.92 in - WNW 3.5 mph - N/A   Unknown
2:30 AM 75.2 °F - 73.4 °F 94% 29.92 in - Calm Calm - N/A   Unknown
3:00 AM 76 °F - 73 °F 86% 29.91 in - West 3.5 mph - -  
3:00 AM 75.2 °F - 73.4 °F 94% 29.92 in - West 3.5 mph - N/A   Unknown
3:30 AM 75.2 °F - 73.4 °F 94% 29.92 in - Calm Calm - N/A   Unknown
4:00 AM 75.2 °F - 73.4 °F 94% 29.92 in - Calm Calm - N/A   Unknown
4:30 AM 75.2 °F - 73.4 °F 94% 29.92 in - Calm Calm - N/A   Unknown
5:00 AM 75.2 °F - 73.4 °F 94% 29.92 in - Calm Calm - N/A   Unknown
5:30 AM 75.2 °F - 73.4 °F 94% 29.92 in - Calm Calm - N/A   Unknown
6:00 AM 76 °F - 72 °F 86% 29.93 in - Calm Calm - -  
6:00 AM 75.2 °F - 73.4 °F 94% 29.92 in - Calm Calm - N/A   Unknown
6:30 AM 75.2 °F - 73.4 °F 94% 29.95 in - NW 4.6 mph - N/A   Unknown
7:00 AM 77.0 °F - 73.4 °F 89% 29.95 in - NNW 3.5 mph - N/A   Unknown
7:30 AM 78.8 °F - 73.4 °F 83% 29.95 in - Calm Calm - N/A   Unknown
8:00 AM 78.8 °F - 73.4 °F 83% 29.95 in - SSE 4.6 mph - N/A   Unknown
8:30 AM 78.8 °F - 71.6 °F 78% 29.95 in - ESE 4.6 mph - N/A   Unknown
9:00 AM 80 °F - 73 °F 75% 29.98 in - SE 4.6 mph - -  
9:00 AM 80.6 °F 85.4 °F 73.4 °F 79% 29.98 in - SE 4.6 mph - N/A   Unknown
9:30 AM 80.6 °F 85.4 °F 73.4 °F 79% 29.98 in - SE 6.9 mph - N/A   Unknown
10:00 AM 80.6 °F 85.4 °F 73.4 °F 79% 29.98 in - SE 6.9 mph - N/A   Unknown
10:30 AM 80.6 °F 86.2 °F 75.2 °F 84% 29.98 in - SSE 9.2 mph - N/A   Unknown
11:00 AM 80.6 °F 85.4 °F 73.4 °F 79% 29.95 in - SSE 10.4 mph - N/A   Unknown
11:30 AM 80.6 °F 86.2 °F 75.2 °F 84% 29.95 in - SE 9.2 mph - N/A   Unknown
12:00 PM 81 °F - 74 °F 74% 29.94 in - SE 8.1 mph - -  
12:00 PM 80.6 °F 85.4 °F 73.4 °F 79% 29.92 in - SE 8.1 mph - N/A   Unknown
12:30 PM 80.6 °F 86.2 °F 75.2 °F 84% 29.92 in - SE 8.1 mph - N/A   Unknown
1:00 PM 82.4 °F 89.5 °F 75.2 °F 79% 29.92 in - SE 9.2 mph - N/A   Unknown
1:30 PM 82.4 °F 87.2 °F 71.6 °F 70% 29.89 in - East 9.2 mph - N/A   Unknown
2:00 PM 80.6 °F 84.6 °F 71.6 °F 74% 29.89 in - East 10.4 mph - N/A   Unknown
2:30 PM 80.6 °F 84.6 °F 71.6 °F 74% 29.89 in - East 11.5 mph - N/A   Unknown
3:00 PM 81 °F - 71 °F 66% 29.89 in - East 11.5 mph - -  
3:00 PM 80.6 °F 84.6 °F 71.6 °F 74% 29.89 in - East 11.5 mph - N/A   Unknown
3:30 PM 80.6 °F 84.6 °F 71.6 °F 74% 29.89 in - East 12.7 mph - N/A   Unknown
4:00 PM 80.6 °F 84.6 °F 71.6 °F 74% 29.89 in - East 11.5 mph - N/A   Unknown
4:30 PM 78.8 °F - 69.8 °F 74% 29.89 in - East 11.5 mph - N/A   Unknown
5:00 PM 78.8 °F - 71.6 °F 78% 29.89 in - East 10.4 mph - N/A   Unknown
5:30 PM 78.8 °F - 69.8 °F 74% 29.89 in - East 10.4 mph - N/A   Unknown
6:00 PM 78 °F - 71 °F 74% 29.91 in - ENE 9.2 mph - -  
6:00 PM 78.8 °F - 71.6 °F 78% 29.92 in - ENE 9.2 mph - N/A   Unknown
6:30 PM 78.8 °F - 71.6 °F 78% 29.92 in - ENE 8.1 mph - N/A   Unknown
7:00 PM 78.8 °F - 71.6 °F 78% 29.92 in - ENE 5.8 mph - N/A   Unknown
7:30 PM 78.8 °F - 71.6 °F 78% 29.95 in - ENE 3.5 mph - N/A   Unknown
8:00 PM 77.0 °F - 71.6 °F 83% 29.95 in - ENE 6.9 mph - N/A   Unknown
8:30 PM 77.0 °F - 71.6 °F 83% 29.95 in - NE 6.9 mph - N/A   Unknown
9:00 PM 77 °F - 72 °F 81% 29.95 in - NE 5.8 mph - -  
9:00 PM 77.0 °F - 71.6 °F 83% 29.95 in - NE 5.8 mph - N/A   Unknown
9:30 PM 77.0 °F - 73.4 °F 89% 29.95 in - North 3.5 mph - N/A   Unknown
10:00 PM 77.0 °F - 73.4 °F 89% 29.95 in - Calm Calm - N/A   Unknown
10:30 PM 77.0 °F - 73.4 °F 89% 29.95 in - Calm Calm - N/A   Unknown
11:00 PM 77.0 °F - 73.4 °F 89% 29.95 in - Calm Calm - N/A   Unknown
11:30 PM 77.0 °F - 73.4 °F 89% 29.95 in - Calm Calm - N/A   Unknown